#timestamp,LO_Frequency,Hit,StdDev 
1569981615.6,286046998.6,N
1569981635.4,286046998.2,N
1569981655.3,286046998.3,N
1569981675.1,286046996.7,N
1569981695.8,286046997.0,N
1569981715.7,286047001.1,N
1569981735.5,286047002.4,N
1569981755.4,286047001.2,N
1569981775.2,286047000.9,N
1569981795.0,286046998.6,N
1569981795.9,286046998.6,N
1569981815.8,286046998.8,N
1569981835.6,286047000.9,N
1569981855.5,286046999.2,N
1569981875.3,286046996.5,N
1569981895.1,286046998.0,N
1569981915.9,286046995.1,N
1569981935.7,286046997.4,N
1569981955.5,286046998.8,N
1569981975.4,286046999.3,N
1569981995.2,286046999.7,N
1569982015.1,286047002.1,N
1569982016.0,286047002.1,N
1569982035.8,286047000.3,N
1569982055.6,286047002.0,N
1569982075.5,286046998.3,N
1569982095.3,286047002.0,N
1569982115.1,286046998.9,N
1569982135.9,286046996.6,N
1569982155.7,286046998.5,N
1569982175.6,286046996.5,N
1569982195.4,286046995.3,N
1569982215.2,286046995.3,N
1569982235.1,286046998.7,N
1569982236.0,286046998.7,N
1569982255.8,286046997.0,N
1569982275.6,286046996.6,N
1569982295.5,286047001.1,N
1569982315.3,286046998.3,N
1569982335.2,286046998.8,N
1569982355.9,286046997.4,N
1569982375.7,286046995.3,N
1569982395.6,286046997.8,N
1569982415.4,286046997.7,N
1569982435.2,286047000.6,N
1569982455.1,286047001.1,N
1569982456.0,286047001.1,N
1569982475.8,286046998.6,N
1569982495.7,286046996.6,N
1569982545.5,286046997.4,E
1569982555.5,286046997.3,N
1569982575.3,286047000.9,P
1569982595.1,286047000.2,N
1569982615.9,286047001.3,N
1569982635.7,286047006.0,Y
1569982655.5,286047003.2,P
1569982675.4,286047001.5,N
1569982695.2,286047002.4,N
1569982715.1,286047003.6,N
1569982716.0,286047003.6,N
1569982735.8,286047004.4,Y
1569982755.6,286047000.5,P
1569982775.5,286047000.5,N
1569982795.3,286047000.1,N
1569982815.1,286046998.6,N
1569982835.9,286047000.7,N
1569982855.7,286047000.7,N
1569982875.6,286047002.3,N
1569982895.4,286047001.0,N
1569982915.2,286046998.3,N
1569982935.1,286047000.6,N
1569982936.0,286047000.6,N
1569982955.8,286047001.9,N
1569982975.7,286046999.7,N
1569982995.5,286047003.5,Y
1569983015.3,286047005.8,P
1569983035.2,286047003.0,N
1569983055.0,286047005.2,N
1569983055.9,286047005.2,N
1569983075.7,286047001.3,N
1569983095.6,286047001.6,N
1569983115.4,286047003.8,N
1569983135.3,286047002.8,N
1569983155.1,286047000.4,N
1569983156.0,286047000.4,N
1569983175.8,286047002.4,N
1569983225.7,286047000.3,E
1569983235.6,286047000.2,N
1569983255.5,286047004.3,P
1569983275.3,286047000.1,N
1569983295.1,286046998.3,N
1569983315.9,286046998.8,N
1569983335.7,286047000.8,N
1569983355.5,286046999.3,N
1569983375.4,286046999.3,N
1569983395.2,286046996.3,N
1569983415.1,286046997.3,N
1569983416.0,286046997.3,N
1569983435.8,286046998.3,N
1569983455.6,286046998.0,N
1569983475.5,286047000.5,N
1569983495.3,286047002.4,N
1569983515.1,286047002.8,N
1569983535.9,286047003.4,N
1569983555.7,286047000.7,N
1569983575.6,286047000.5,N
1569983595.4,286047001.8,N
1569983615.2,286047003.3,N
1569983635.1,286047002.3,N
1569983636.0,286047002.3,N
1569983655.8,286047001.8,N
1569983675.6,286047001.8,N
1569983695.5,286047002.6,N
1569983715.3,286047000.0,N
1569983735.2,286047002.5,N
1569983755.9,286047004.3,N
1569983775.7,286047004.0,N
1569983795.6,286047005.4,N
1569983815.4,286047001.7,N
1569983835.2,286047000.4,N
1569983855.1,286047002.1,N
1569983856.0,286047002.1,N
1569983875.8,286047000.0,N
1569983895.7,286046999.7,N
1569983915.5,286047000.3,N
1569983935.3,286046998.6,N
1569983955.2,286047002.4,N
1569983975.0,286047002.8,N
1569983975.9,286047002.8,N
1569983995.8,286047001.6,N
1569984015.6,286047000.1,N
1569984035.4,286047000.0,N
1569984055.3,286047002.8,N
1569984075.1,286047005.9,Y
1569984095.8,286047002.3,P
1569984115.7,286047000.7,N
1569984135.5,286047000.2,N
1569984155.4,286047001.4,N
1569984175.2,286046998.2,N
1569984195.0,286046999.4,N
1569984195.9,286046999.4,N
1569984215.8,286046997.0,N
1569984235.6,286046996.6,N
1569984255.4,286046997.4,N
1569984275.3,286046998.3,N
1569984295.1,286047000.3,N
1569984315.9,286046999.6,N
1569984335.7,286046998.7,N
1569984355.5,286047001.2,N
1569984375.4,286046998.5,N
1569984395.2,286046999.1,N
1569984415.0,286046998.1,N
1569984415.9,286046998.1,N
1569984435.8,286046998.1,N
1569984455.6,286047002.4,N
1569984475.5,286046999.7,N
1569984495.3,286047001.4,N
1569984515.1,286047003.3,N
1569984535.9,286047007.7,Y
1569984555.7,286047006.5,P
1569984575.5,286047007.3,N
1569984595.4,286047002.4,N
1569984615.2,286046998.6,N
1569984635.1,286047002.9,N
1569984636.0,286047002.9,N
1569984655.8,286047001.8,N
1569984675.6,286046999.8,N
1569984695.5,286047004.4,N
1569984715.3,286046998.6,N
1569984735.1,286046997.7,N
1569984755.9,286046998.1,N
1569984775.7,286047002.7,N
1569984795.6,286047000.4,N
1569984815.4,286046999.2,N
1569984835.2,286046996.7,N
1569984855.1,286046998.5,N
1569984856.0,286046998.5,N
1569984875.8,286046997.7,N
1569984895.6,286046996.9,N
1569984915.5,286046996.6,N
1569984935.3,286046996.7,N
1569984955.2,286046998.4,N
1569984975.9,286047004.0,N
1569984995.7,286047004.4,N
1569985015.6,286046998.6,N
1569985035.4,286046999.6,N
1569985055.2,286046999.2,N
1569985075.1,286046995.2,N
1569985076.0,286046995.2,N
1569985095.8,286046992.1,N
1569985115.6,286046991.9,N
1569985135.5,286046992.9,N
1569985155.3,286046990.2,N
1569985175.2,286046992.1,N
1569985195.9,286046993.1,N
